Weather History for KMWM - December, 2012

Change the Weather History Date:

Sunday, December 23, 2012

  Actual Average Record
Temperature  
Mean Temperature 10 °F -  
Max Temperature 14 °F 24 °F 46 °F (1982)
Min Temperature 5 °F 8 °F -28 °F (1983)
Degree Days  
Heating Degree Days 56    
Moisture  
Dew Point 7 °F    
Average Humidity 89    
Maximum Humidity 100    
Minimum Humidity 79    
Precipitation  
Precipitation 0.00 in - - ()
Sea Level Pressure  
Sea Level Pressure 30.01 in    
Wind  
Wind Speed 8 mph (North)    
Max Wind Speed 15 mph    
Max Gust Speed -    
Visibility 9 miles    
Events Snow    
Averages and records for this station are not official NWS values.
T = Trace of Precipitation, MM = Missing Value Source: NWS Daily Summary

Daily Weather History Graph

Daily Weather History Graph

Search for Another Location

Airport or City:

Trip Planner

Search our weather history database for the weather conditions in past years. The results will help you decide how hot, cold, wet, or windy it might be!

Date:

Astronomy

Dec. 23, 2012 Rise Set
Actual Time 7:52 AM CST 4:46 PM CST
Civil Twilight 7:19 AM CST 5:19 PM CST
Nautical Twilight 6:43 AM CST 5:56 PM CST
Astronomical Twilight 6:08 AM CST 6:31 PM CST
Moon 1:41 PM CST (12/23) 3:31 AM CST (12/23)
Length of Visible Light 10h 00m
Length of Day
8h 54m
Waxing Gibbous, 82% of the Moon is Illuminated
Dec 23
Waxing Gibbous
Dec 28
Full
Jan 4
Last Quarter
Jan 11
New
Jan 18
First Quarter

Hourly Weather History & Observations

Time (CST) Temp. Windchill Dew Point Humidity Pressure Visibility Wind Dir Wind Speed Gust Speed Precip Events Conditions
12:12 AM 8.6 °F -7.0 °F 5.0 °F 85% 30.02 in 7.0 mi NNW 12.7 mph - N/A Snow Light Snow
12:33 AM 8.6 °F -6.3 °F 5.0 °F 85% 30.01 in 10.0 mi NNW 11.5 mph - N/A   Mostly Cloudy
12:52 AM 6.8 °F -10.7 °F 5.0 °F 92% 30.01 in 10.0 mi NNW 15.0 mph - N/A   Scattered Clouds
1:12 AM 6.8 °F -10.0 °F 3.2 °F 85% 30.01 in 10.0 mi NNW 13.8 mph - N/A   Clear
1:33 AM 6.8 °F -9.3 °F 3.2 °F 85% 30.01 in 10.0 mi NNW 12.7 mph - N/A   Scattered Clouds
1:52 AM 6.8 °F -9.3 °F 3.2 °F 85% 30.01 in 10.0 mi NNW 12.7 mph - N/A   Overcast
2:12 AM 6.8 °F -9.3 °F 5.0 °F 92% 30.03 in 7.0 mi NNW 12.7 mph - N/A Snow Light Snow
2:33 AM 6.8 °F -9.3 °F 6.8 °F 100% 30.02 in 5.0 mi NNW 12.7 mph - N/A Snow Light Snow
2:52 AM 8.6 °F -6.3 °F 6.8 °F 92% 30.04 in 5.0 mi NNW 11.5 mph - N/A Snow Light Snow
3:12 AM 8.6 °F -6.3 °F 6.8 °F 92% 30.04 in 3.0 mi NNW 11.5 mph - N/A Snow Light Snow
3:52 AM 8.6 °F -7.0 °F 6.8 °F 92% 30.02 in 5.0 mi North 12.7 mph - N/A Snow Light Snow
4:12 AM 8.6 °F -5.5 °F 6.8 °F 92% 30.02 in 4.0 mi NNW 10.4 mph - N/A Snow Light Snow
4:32 AM 10.4 °F -0.4 °F 8.6 °F 92% 30.04 in 3.0 mi NNW 6.9 mph - N/A Snow Light Snow
4:52 AM 10.4 °F -0.4 °F 6.8 °F 85% 30.04 in 4.0 mi NNW 6.9 mph - N/A Snow Light Snow
5:13 AM 8.6 °F -5.5 °F 6.8 °F 92% 30.03 in 5.0 mi North 10.4 mph - N/A Snow Light Snow
5:32 AM 8.6 °F -4.7 °F 6.8 °F 92% 30.03 in 7.0 mi North 9.2 mph - N/A   Overcast
5:52 AM 8.6 °F -1.3 °F 6.8 °F 92% 30.04 in 7.0 mi North 5.8 mph - N/A Snow Light Snow
6:13 AM 8.6 °F -2.6 °F 6.8 °F 92% 30.05 in 10.0 mi North 6.9 mph - N/A   Overcast
6:32 AM 8.6 °F 0.1 °F 6.8 °F 92% 30.04 in 10.0 mi North 4.6 mph - N/A Snow Light Snow
6:52 AM 8.6 °F -1.3 °F 6.8 °F 92% 30.04 in 10.0 mi North 5.8 mph - N/A   Overcast
7:13 AM 8.6 °F -3.7 °F 6.8 °F 92% 30.04 in 10.0 mi North 8.1 mph - N/A   Overcast
7:52 AM 8.6 °F -1.3 °F 5.0 °F 85% 30.05 in 10.0 mi North 5.8 mph - N/A   Mostly Cloudy
8:13 AM 6.8 °F -2.0 °F 5.0 °F 92% 30.05 in 10.0 mi North 4.6 mph - N/A   Scattered Clouds
8:32 AM 6.8 °F -3.5 °F 5.0 °F 92% 30.05 in 10.0 mi North 5.8 mph - N/A   Scattered Clouds
8:52 AM 8.6 °F -2.6 °F 6.8 °F 92% 30.05 in 10.0 mi North 6.9 mph - N/A   Clear
9:13 AM 8.6 °F -1.3 °F 6.8 °F 92% 30.07 in 10.0 mi North 5.8 mph - N/A   Clear
9:32 AM 8.6 °F -2.6 °F 6.8 °F 92% 30.05 in 10.0 mi NNE 6.9 mph - N/A   Clear
9:52 AM 8.6 °F 0.1 °F 6.8 °F 92% 30.05 in 10.0 mi NNE 4.6 mph - N/A   Clear
10:13 AM 10.4 °F 2.2 °F 8.6 °F 92% 30.05 in 10.0 mi NNE 4.6 mph - N/A   Scattered Clouds
10:52 AM 10.4 °F -1.5 °F 8.6 °F 92% 30.04 in 7.0 mi NNE 8.1 mph - N/A Snow Light Snow
11:13 AM 10.4 °F 0.8 °F 8.6 °F 92% 30.03 in 7.0 mi NE 5.8 mph - N/A   Overcast
11:32 AM 10.4 °F -1.5 °F 8.6 °F 92% 30.02 in 10.0 mi NE 8.1 mph - N/A Snow Light Snow
11:52 AM 12.2 °F 0.7 °F 10.4 °F 92% 30.01 in 10.0 mi NE 8.1 mph - N/A Snow Light Snow
12:13 PM 12.2 °F 6.1 °F 8.6 °F 85% 30.02 in 10.0 mi NE 3.5 mph - N/A   Mostly Cloudy
12:33 PM 12.2 °F - 8.6 °F 85% 30.02 in 7.0 mi Calm Calm - N/A Snow Light Snow
12:52 PM 14.0 °F 8.2 °F 8.6 °F 79% 30.01 in 7.0 mi NNE 3.5 mph - N/A Snow Light Snow
1:13 PM 14.0 °F 8.2 °F 10.4 °F 86% 30.01 in 10.0 mi NNE 3.5 mph - N/A Snow Light Snow
1:52 PM 14.0 °F - 10.4 °F 86% 30.00 in 10.0 mi Calm Calm - N/A   Scattered Clouds
2:13 PM 14.0 °F - 10.4 °F 86% 30.00 in 10.0 mi Calm Calm - N/A   Scattered Clouds
2:33 PM 14.0 °F - 10.4 °F 86% 30.00 in 10.0 mi Calm Calm - N/A   Clear
2:52 PM 14.0 °F - 10.4 °F 86% 30.00 in 10.0 mi Calm Calm - N/A   Clear
3:13 PM 14.0 °F - 10.4 °F 86% 30.00 in 10.0 mi Calm Calm - N/A   Clear
3:33 PM 14.0 °F - 10.4 °F 86% 30.01 in 10.0 mi Calm Calm - N/A   Clear
3:52 PM 14.0 °F - 10.4 °F 86% 30.02 in 10.0 mi Calm Calm - N/A   Clear
4:13 PM 14.0 °F - 10.4 °F 86% 30.01 in 10.0 mi Calm Calm - N/A   Clear
4:52 PM 14.0 °F 5.1 °F 10.4 °F 86% 30.01 in 10.0 mi North 5.8 mph - N/A   Clear
5:13 PM 12.2 °F 1.7 °F 10.4 °F 92% 30.00 in 10.0 mi North 6.9 mph - N/A   Clear
5:33 PM 12.2 °F 0.7 °F 10.4 °F 92% 30.02 in 10.0 mi NNW 8.1 mph - N/A   Clear
5:52 PM 12.2 °F 1.7 °F 8.6 °F 85% 30.02 in 10.0 mi North 6.9 mph - N/A   Clear
6:13 PM 12.2 °F 2.9 °F 8.6 °F 85% 30.01 in 10.0 mi North 5.8 mph - N/A   Clear
6:33 PM 12.2 °F 2.9 °F 8.6 °F 85% 30.02 in 10.0 mi North 5.8 mph - N/A   Clear
6:52 PM 10.4 °F 4.0 °F 8.6 °F 92% 29.99 in 10.0 mi NE 3.5 mph - N/A   Clear
7:13 PM 10.4 °F 0.8 °F 8.6 °F 92% 29.97 in 10.0 mi ENE 5.8 mph - N/A   Clear
7:33 PM 10.4 °F 0.8 °F 8.6 °F 92% 29.96 in 10.0 mi ENE 5.8 mph - N/A   Clear
7:52 PM 10.4 °F - 8.6 °F 92% 29.97 in 10.0 mi Calm Calm - N/A   Clear
8:13 PM 10.4 °F - 8.6 °F 92% 29.97 in 10.0 mi Calm Calm - N/A   Clear
8:33 PM 10.4 °F - 6.8 °F 85% 29.96 in 10.0 mi Calm Calm - N/A   Clear
8:52 PM 8.6 °F - 6.8 °F 92% 29.97 in 10.0 mi Calm Calm - N/A   Clear
9:13 PM 6.8 °F - 3.2 °F 85% 29.97 in 10.0 mi Calm Calm - N/A   Clear
9:32 PM 5.0 °F - 3.2 °F 92% 29.97 in 10.0 mi Calm Calm - N/A   Clear
9:52 PM 6.8 °F -2.0 °F 3.2 °F 85% 29.99 in 10.0 mi West 4.6 mph - N/A   Clear
10:13 PM 6.8 °F - 3.2 °F 85% 29.98 in 10.0 mi Calm Calm - N/A   Clear
10:32 PM 6.8 °F - 3.2 °F 85% 29.97 in 10.0 mi Calm Calm - N/A   Clear
10:52 PM 8.6 °F - 6.8 °F 92% 29.98 in 10.0 mi Calm Calm - N/A   Clear
11:13 PM 8.6 °F - 6.8 °F 92% 29.98 in 10.0 mi Calm Calm - N/A   Clear
11:32 PM 8.6 °F - 5.0 °F 85% 29.98 in 10.0 mi Calm Calm - N/A Snow Light Snow
11:53 PM 8.6 °F - 6.8 °F 92% 29.97 in 10.0 mi Calm Calm - N/A Snow Light Snow